Time,TemperatureF,DewpointF,PressureIn,WindDirection,WindDirectionDegrees,WindSpeedMPH,WindSpeedGustMPH,Humidity,HourlyPrecipIn,Conditions,Clouds,dailyrainin,SoftwareType,DateUTC
2013-01-26 00:08:00,6.3,3.0,30.12,NW,305,4.0,5.0,85,0.00,,,0.00,weatherlink.com 1.10,2013-01-26 05:08:00,
2013-01-26 00:23:00,6.2,3.0,30.11,NNW,330,3.0,6.0,85,0.00,,,0.00,weatherlink.com 1.10,2013-01-26 05:23:00,
2013-01-26 00:38:00,6.1,3.0,30.11,WSW,250,2.0,8.0,85,0.00,,,0.00,weatherlink.com 1.10,2013-01-26 05:38:00,
2013-01-26 00:53:00,5.9,2.0,30.11,NW,309,1.0,6.0,85,0.00,,,0.00,weatherlink.com 1.10,2013-01-26 05:53:00,
2013-01-26 01:08:00,5.7,2.0,30.11,WNW,298,3.0,7.0,86,0.00,,,0.00,weatherlink.com 1.10,2013-01-26 06:08:00,
2013-01-26 01:23:00,5.6,2.0,30.10,WNW,283,3.0,5.0,86,0.00,,,0.00,weatherlink.com 1.10,2013-01-26 06:23:00,
2013-01-26 01:38:00,5.5,2.0,30.10,WNW,288,4.0,4.0,86,0.00,,,0.00,weatherlink.com 1.10,2013-01-26 06:38:00,
2013-01-26 01:53:00,5.3,2.0,30.10,West,274,1.0,5.0,86,0.00,,,0.00,weatherlink.com 1.10,2013-01-26 06:53:00,
2013-01-26 02:08:00,5.0,2.0,30.10,WNW,288,4.0,6.0,86,0.00,,,0.00,weatherlink.com 1.10,2013-01-26 07:08:00,
2013-01-26 02:23:00,4.9,1.0,30.10,NW,309,4.0,8.0,85,0.00,,,0.00,weatherlink.com 1.10,2013-01-26 07:23:00,
2013-01-26 02:38:00,4.9,1.0,30.09,WSW,249,3.0,7.0,85,0.00,,,0.00,weatherlink.com 1.10,2013-01-26 07:38:00,
2013-01-26 02:54:00,5.0,1.0,30.09,WNW,289,3.0,7.0,84,0.00,,,0.00,weatherlink.com 1.10,2013-01-26 07:54:00,
2013-01-26 03:09:00,4.9,1.0,30.08,WNW,301,3.0,8.0,84,0.00,,,0.00,weatherlink.com 1.10,2013-01-26 08:09:00,
2013-01-26 03:24:00,4.8,1.0,30.08,West,280,4.0,6.0,83,0.00,,,0.00,weatherlink.com 1.10,2013-01-26 08:24:00,
2013-01-26 03:38:00,4.6,0.0,30.08,West,273,3.0,5.0,82,0.00,,,0.00,weatherlink.com 1.10,2013-01-26 08:38:00,
2013-01-26 03:54:00,4.3,0.0,30.08,West,264,2.0,5.0,82,0.00,,,0.00,weatherlink.com 1.10,2013-01-26 08:54:00,
2013-01-26 04:09:00,4.0,0.0,30.08,WNW,291,6.0,8.0,82,0.00,,,0.00,weatherlink.com 1.10,2013-01-26 09:09:00,
2013-01-26 04:24:00,3.7,0.0,30.08,West,278,3.0,7.0,83,0.00,,,0.00,weatherlink.com 1.10,2013-01-26 09:24:00,
2013-01-26 04:39:00,3.5,0.0,30.08,NW,322,5.0,10.0,84,0.00,,,0.00,weatherlink.com 1.10,2013-01-26 09:39:00,
2013-01-26 04:54:00,3.5,0.0,30.07,West,273,2.0,11.0,84,0.00,,,0.00,weatherlink.com 1.10,2013-01-26 09:54:00,
2013-01-26 05:09:00,3.3,-1.0,30.08,NW,325,4.0,9.0,84,0.00,,,0.00,weatherlink.com 1.10,2013-01-26 10:09:00,
2013-01-26 05:24:00,3.0,-1.0,30.08,West,273,4.0,9.0,84,0.00,,,0.00,weatherlink.com 1.10,2013-01-26 10:24:00,
2013-01-26 05:39:00,2.9,-1.0,30.09,WNW,286,2.0,6.0,84,0.00,,,0.00,weatherlink.com 1.10,2013-01-26 10:39:00,
2013-01-26 05:54:00,2.6,-1.0,30.09,West,264,4.0,8.0,85,0.00,,,0.00,weatherlink.com 1.10,2013-01-26 10:54:00,
2013-01-26 06:10:00,2.5,-1.0,30.10,NW,323,2.0,9.0,85,0.00,,,0.00,weatherlink.com 1.10,2013-01-26 11:10:00,
2013-01-26 06:25:00,2.3,-1.0,30.11,NW,323,4.0,6.0,85,0.00,,,0.00,weatherlink.com 1.10,2013-01-26 11:25:00,
2013-01-26 06:39:00,2.1,-1.0,30.11,West,276,7.0,7.0,85,0.00,,,0.00,weatherlink.com 1.10,2013-01-26 11:39:00,
2013-01-26 06:54:00,2.1,-1.0,30.11,WNW,284,4.0,8.0,85,0.00,,,0.00,weatherlink.com 1.10,2013-01-26 11:54:00,
2013-01-26 07:09:00,2.0,-2.0,30.12,WNW,291,4.0,8.0,85,0.00,,,0.00,weatherlink.com 1.10,2013-01-26 12:09:00,
2013-01-26 07:25:00,1.9,-2.0,30.12,NW,323,5.0,7.0,85,0.00,,,0.00,weatherlink.com 1.10,2013-01-26 12:25:00,
2013-01-26 07:40:00,1.9,-2.0,30.12,WNW,293,4.0,9.0,85,0.00,,,0.00,weatherlink.com 1.10,2013-01-26 12:40:00,
2013-01-26 07:55:00,1.8,-2.0,30.12,NW,305,1.0,10.0,85,0.00,,,0.00,weatherlink.com 1.10,2013-01-26 12:55:00,
2013-01-26 08:10:00,1.9,-2.0,30.13,WNW,302,3.0,11.0,85,0.00,,,0.00,weatherlink.com 1.10,2013-01-26 13:10:00,
2013-01-26 08:25:00,2.1,-1.0,30.13,WNW,285,5.0,10.0,85,0.00,,,0.00,weatherlink.com 1.10,2013-01-26 13:25:00,
2013-01-26 08:40:00,2.3,-1.0,30.13,NNW,331,7.0,10.0,84,0.00,,,0.00,weatherlink.com 1.10,2013-01-26 13:40:00,
2013-01-26 08:55:00,2.8,-2.0,30.14,WNW,289,2.0,9.0,82,0.00,,,0.00,weatherlink.com 1.10,2013-01-26 13:55:00,
2013-01-26 09:10:00,3.4,-1.0,30.14,WNW,288,2.0,10.0,80,0.00,,,0.00,weatherlink.com 1.10,2013-01-26 14:10:00,
2013-01-26 09:25:00,4.0,-2.0,30.14,WNW,289,5.0,14.0,76,0.00,,,0.00,weatherlink.com 1.10,2013-01-26 14:25:00,
2013-01-26 09:40:00,4.7,-2.0,30.14,WNW,290,2.0,8.0,73,0.00,,,0.00,weatherlink.com 1.10,2013-01-26 14:40:00,
2013-01-26 09:56:00,5.3,-3.0,30.15,WSW,250,3.0,13.0,68,0.00,,,0.00,weatherlink.com 1.10,2013-01-26 14:56:00,
2013-01-26 10:10:00,5.8,-3.0,30.15,WNW,285,1.0,15.0,66,0.00,,,0.00,weatherlink.com 1.10,2013-01-26 15:10:00,
2013-01-26 10:25:00,6.5,-4.0,30.15,WNW,300,6.0,14.0,63,0.00,,,0.00,weatherlink.com 1.10,2013-01-26 15:25:00,
2013-01-26 10:41:00,6.9,-4.0,30.14,WNW,298,6.0,15.0,60,0.00,,,0.00,weatherlink.com 1.10,2013-01-26 15:41:00,
2013-01-26 10:56:00,7.5,-4.0,30.14,NNW,330,5.0,14.0,59,0.00,,,0.00,weatherlink.com 1.10,2013-01-26 15:56:00,
2013-01-26 11:11:00,7.7,-4.0,30.14,SW,232,3.0,11.0,58,0.00,,,0.00,weatherlink.com 1.10,2013-01-26 16:11:00,
2013-01-26 11:26:00,8.5,-4.0,30.13,WNW,302,4.0,12.0,58,0.00,,,0.00,weatherlink.com 1.10,2013-01-26 16:26:00,
2013-01-26 11:41:00,9.1,-2.0,30.13,WNW,294,6.0,12.0,60,0.00,,,0.00,weatherlink.com 1.10,2013-01-26 16:41:00,
2013-01-26 11:56:00,9.5,-3.0,30.12,West,269,7.0,15.0,58,0.00,,,0.00,weatherlink.com 1.10,2013-01-26 16:56:00,
2013-01-26 12:11:00,9.9,-3.0,30.12,West,281,5.0,12.0,57,0.00,,,0.00,weatherlink.com 1.10,2013-01-26 17:11:00,
2013-01-26 12:26:00,10.5,-3.0,30.12,NW,318,2.0,11.0,56,0.00,,,0.00,weatherlink.com 1.10,2013-01-26 17:26:00,
2013-01-26 12:41:00,10.4,-5.0,30.12,West,274,5.0,15.0,51,0.00,,,0.00,weatherlink.com 1.10,2013-01-26 17:41:00,
2013-01-26 12:56:00,10.8,-5.0,30.12,WNW,299,5.0,13.0,50,0.00,,,0.00,weatherlink.com 1.10,2013-01-26 17:56:00,
2013-01-26 13:12:00,11.3,-5.0,30.12,WNW,284,8.0,14.0,48,0.00,,,0.00,weatherlink.com 1.10,2013-01-26 18:12:00,
2013-01-26 13:26:00,11.4,-6.0,30.12,WNW,300,5.0,15.0,46,0.00,,,0.00,weatherlink.com 1.10,2013-01-26 18:26:00,
2013-01-26 13:42:00,11.9,-6.0,30.12,WNW,301,2.0,15.0,45,0.00,,,0.00,weatherlink.com 1.10,2013-01-26 18:42:00,
2013-01-26 13:57:00,12.0,-7.0,30.11,NNE,25,5.0,11.0,43,0.00,,,0.00,weatherlink.com 1.10,2013-01-26 18:57:00,
2013-01-26 14:12:00,11.9,-8.0,30.12,WNW,284,9.0,16.0,41,0.00,,,0.00,weatherlink.com 1.10,2013-01-26 19:12:00,
2013-01-26 14:27:00,12.2,-8.0,30.13,SW,231,7.0,16.0,40,0.00,,,0.00,weatherlink.com 1.10,2013-01-26 19:27:00,
2013-01-26 14:42:00,12.4,-8.0,30.14,West,267,5.0,20.0,40,0.00,,,0.00,weatherlink.com 1.10,2013-01-26 19:42:00,
2013-01-26 14:57:00,12.7,-8.0,30.15,WNW,291,6.0,16.0,40,0.00,,,0.00,weatherlink.com 1.10,2013-01-26 19:57:00,
2013-01-26 15:12:00,13.0,-8.0,30.15,WNW,286,10.0,13.0,39,0.00,,,0.00,weatherlink.com 1.10,2013-01-26 20:12:00,
2013-01-26 15:27:00,12.5,-8.0,30.15,WNW,286,3.0,17.0,39,0.00,,,0.00,weatherlink.com 1.10,2013-01-26 20:27:00,
2013-01-26 15:42:00,11.8,-9.0,30.16,SW,214,13.0,18.0,38,0.00,,,0.00,weatherlink.com 1.10,2013-01-26 20:42:00,
2013-01-26 15:57:00,11.0,-9.0,30.16,NNW,347,4.0,19.0,41,0.00,,,0.00,weatherlink.com 1.10,2013-01-26 20:57:00,
2013-01-26 16:12:00,10.9,-10.0,30.17,WNW,285,5.0,19.0,39,0.00,,,0.00,weatherlink.com 1.10,2013-01-26 21:12:00,
2013-01-26 16:27:00,10.3,-10.0,30.18,WNW,284,8.0,16.0,40,0.00,,,0.00,weatherlink.com 1.10,2013-01-26 21:27:00,
2013-01-26 16:43:00,9.8,-10.0,30.18,NW,314,7.0,18.0,41,0.00,,,0.00,weatherlink.com 1.10,2013-01-26 21:43:00,
2013-01-26 16:59:00,9.6,-9.0,30.18,WNW,294,4.0,13.0,42,0.00,,,0.00,weatherlink.com 1.10,2013-01-26 21:59:00,
2013-01-26 17:12:00,9.4,-9.0,30.19,SW,233,2.0,12.0,44,0.00,,,0.00,weatherlink.com 1.10,2013-01-26 22:12:00,
2013-01-26 17:28:00,8.9,-9.0,30.20,SSE,159,3.0,11.0,44,0.00,,,0.00,weatherlink.com 1.10,2013-01-26 22:28:00,
2013-01-26 17:43:00,8.5,-9.0,30.20,West,263,9.0,13.0,45,0.00,,,0.00,weatherlink.com 1.10,2013-01-26 22:43:00,
2013-01-26 17:58:00,8.1,-8.0,30.21,West,262,2.0,12.0,47,0.00,,,0.00,weatherlink.com 1.10,2013-01-26 22:58:00,
2013-01-26 18:13:00,7.7,-8.0,30.21,WSW,255,2.0,12.0,49,0.00,,,0.00,weatherlink.com 1.10,2013-01-26 23:13:00,
2013-01-26 18:28:00,7.5,-7.0,30.21,WNW,289,4.0,14.0,52,0.00,,,0.00,weatherlink.com 1.10,2013-01-26 23:28:00,
2013-01-26 18:43:00,7.1,-7.0,30.21,WSW,253,3.0,10.0,53,0.00,,,0.00,weatherlink.com 1.10,2013-01-26 23:43:00,
2013-01-26 18:58:00,7.0,-6.0,30.22,WNW,293,5.0,12.0,56,0.00,,,0.00,weatherlink.com 1.10,2013-01-26 23:58:00,
2013-01-26 19:13:00,6.8,-5.0,30.22,WSW,248,7.0,13.0,59,0.00,,,0.00,weatherlink.com 1.10,2013-01-27 00:13:00,
2013-01-26 19:28:00,6.6,-4.0,30.22,WNW,287,8.0,12.0,61,0.00,,,0.00,weatherlink.com 1.10,2013-01-27 00:28:00,
2013-01-26 19:43:00,6.5,-3.0,30.23,West,280,4.0,12.0,65,0.00,,,0.00,weatherlink.com 1.10,2013-01-27 00:43:00,
2013-01-26 19:58:00,6.4,-2.0,30.23,NW,323,3.0,15.0,67,0.00,,,0.00,weatherlink.com 1.10,2013-01-27 00:58:00,
2013-01-26 20:14:00,6.3,-2.0,30.23,SSW,197,5.0,13.0,68,0.00,,,0.00,weatherlink.com 1.10,2013-01-27 01:14:00,
2013-01-26 20:29:00,5.9,-2.0,30.24,West,259,2.0,9.0,69,0.00,,,0.00,weatherlink.com 1.10,2013-01-27 01:29:00,
2013-01-26 20:44:00,5.8,-2.0,30.23,WNW,290,3.0,12.0,70,0.00,,,0.00,weatherlink.com 1.10,2013-01-27 01:44:00,
2013-01-26 20:59:00,5.8,-2.0,30.23,WNW,290,8.0,14.0,71,0.00,,,0.00,weatherlink.com 1.10,2013-01-27 01:59:00,
2013-01-26 21:14:00,6.1,-1.0,30.23,WSW,257,3.0,15.0,72,0.00,,,0.00,weatherlink.com 1.10,2013-01-27 02:14:00,
2013-01-26 21:29:00,6.1,-1.0,30.23,West,280,13.0,15.0,73,0.00,,,0.00,weatherlink.com 1.10,2013-01-27 02:29:00,
2013-01-26 21:44:00,6.0,-1.0,30.23,West,262,3.0,15.0,73,0.00,,,0.00,weatherlink.com 1.10,2013-01-27 02:44:00,
2013-01-26 21:59:00,5.7,-1.0,30.24,West,281,8.0,10.0,74,0.00,,,0.00,weatherlink.com 1.10,2013-01-27 02:59:00,
2013-01-26 22:14:00,5.6,-1.0,30.25,West,274,2.0,13.0,74,0.00,,,0.00,weatherlink.com 1.10,2013-01-27 03:14:00,
2013-01-26 22:29:00,5.8,-1.0,30.26,NW,309,4.0,12.0,75,0.00,,,0.00,weatherlink.com 1.10,2013-01-27 03:29:00,
2013-01-26 22:44:00,6.0,0.0,30.26,SW,226,4.0,14.0,76,0.00,,,0.00,weatherlink.com 1.10,2013-01-27 03:44:00,
2013-01-26 22:59:00,6.2,0.0,30.26,NW,309,12.0,13.0,76,0.00,,,0.00,weatherlink.com 1.10,2013-01-27 03:59:00,
2013-01-26 23:14:00,6.1,0.0,30.27,WNW,283,3.0,15.0,76,0.00,,,0.00,weatherlink.com 1.10,2013-01-27 04:14:00,
2013-01-26 23:29:00,5.9,0.0,30.27,South,172,6.0,14.0,78,0.00,,,0.00,weatherlink.com 1.10,2013-01-27 04:29:00,
2013-01-26 23:45:00,6.0,1.0,30.27,WSW,239,6.0,16.0,78,0.00,,,0.00,weatherlink.com 1.10,2013-01-27 04:45:00,
2013-01-26 23:59:00,6.1,1.0,30.27,West,276,8.0,14.0,79,0.00,,,0.00,weatherlink.com 1.10,2013-01-27 04:59:00,